CW8122 Weather Reports


Display with metric or nautical units.
time (UTC)temp
F
wind
direction
speed
MPH
gust
MPH
rain 1hr
in
rain 24hr
in
rain mn
in
humidity
%
barometer
mb
20260510230715 81 138 7.0 16.0 0.00 0.00 0.00 18 1013.7
20260510223714 82 144 9.0 18.0 0.00 0.00 0.00 18 1013.7
20260510223214 83 124 12.0 18.0 0.00 0.00 0.00 18 1013.7
20260510222714 83 119 9.0 17.0 0.00 0.00 0.00 17 1013.7
20260510222214 82 118 11.0 17.0 0.00 0.00 0.00 17 1013.7
20260510221714 82 144 10.0 17.0 0.00 0.00 0.00 18 1013.8
20260510221215 82 137 7.0 17.0 0.00 0.00 0.00 18 1014.0
20260510220714 83 145 7.0 17.0 0.00 0.00 0.00 17 1014.0
20260510220215 84 154 7.0 17.0 0.00 0.00 0.00 17 1014.1
20260510215715 86 149 11.0 17.0 0.00 0.00 0.00 15 1014.2
20260510214714 87 75 2.0 8.0 0.00 0.00 0.00 6 1014.3
20260510214214 86 139 4.0 8.0 0.00 0.00 0.00 6 1014.3
20260510213715 85 189 2.0 13.0 0.00 0.00 0.00 5 1014.3
20260510212215 87 276 5.0 13.0 0.00 0.00 0.00 4 1014.4
20260510205715 90 244 2.0 6.0 0.00 0.00 0.00 5 1014.4
20260510205214 89 268 3.0 12.0 0.00 0.00 0.00 5 1014.5
20260510204214 85 266 7.0 17.0 0.00 0.00 0.00 6 1014.5
20260510202715 87 144 4.0 15.0 0.00 0.00 0.00 5 1014.9
20260510202216 88 265 6.0 15.0 0.00 0.00 0.00 5 1014.9
20260510201214 89 231 1.0 10.0 0.00 0.00 0.00 5 1014.8
20260510200715 88 262 3.0 10.0 0.00 0.00 0.00 5 1014.9
20260510200214 86 293 5.0 9.0 0.00 0.00 0.00 6 1014.9
20260510195714 86 251 1.0 6.0 0.00 0.00 0.00 5 1014.9
20260510195214 86 89 2.0 6.0 0.00 0.00 0.00 7 1014.9
20260510194715 86 102 2.0 9.0 0.00 0.00 0.00 8 1014.9
20260510194214 86 346 2.0 9.0 0.00 0.00 0.00 8 1014.9
20260510193715 86 347 4.0 9.0 0.00 0.00 0.00 7 1014.9
20260510192715 86 114 7.0 12.0 0.00 0.00 0.00 7 1015.0
20260510192215 87 47 2.0 12.0 0.00 0.00 0.00 7 1015.0
20260510191714 87 101 6.0 12.0 0.00 0.00 0.00 7 1014.9
20260510191214 87 60 3.0 9.0 0.00 0.00 0.00 8 1015.0
20260510190714 85 22 3.0 8.0 0.00 0.00 0.00 8 1015.0
20260510190215 84 200 1.0 7.0 0.00 0.00 0.00 8 1015.1
20260510185214 85 170 3.0 9.0 0.00 0.00 0.00 8 1015.2
20260510183714 85 74 6.0 12.0 0.00 0.00 0.00 8 1015.2
20260510182215 85 46 1.0 10.0 0.00 0.00 0.00 10 1015.3
20260510181214 83 347 3.0 9.0 0.00 0.00 0.00 10 1015.4
20260510174214 80 95 5.0 7.0 0.00 0.00 0.00 16 1015.5
20260510172214 78 273 2.0 12.0 0.00 0.00 0.00 16 1015.6
20260510171715 79 145 5.0 12.0 0.00 0.00 0.00 15 1015.7
20260510170714 80 5 3.0 7.0 0.00 0.00 0.00 15 1015.7
20260510165715 79 88 4.0 7.0 0.00 0.00 0.00 16 1015.7
20260510164714 77 175 1.0 8.0 0.00 0.00 0.00 17 1015.7
20260510163714 76 219 4.0 7.0 0.00 0.00 0.00 18 1015.8
20260510162715 76 229 2.0 9.0 0.00 0.00 0.00 18 1015.7
20260510162214 77 175 5.0 9.0 0.00 0.00 0.00 17 1015.8
20260510161715 76 48 1.0 6.0 0.00 0.00 0.00 18 1015.9
20260510160714 75 168 4.0 8.0 0.00 0.00 0.00 19 1015.8
20260510155715 77 116 5.0 9.0 0.00 0.00 0.00 18 1015.8
20260510155216 77 107 2.0 8.0 0.00 0.00 0.00 18 1015.8
20260510154715 76 84 3.0 8.0 0.00 0.00 0.00 18 1015.9
20260510153214 75 53 2.0 7.0 0.00 0.00 0.00 19 1016.0
20260510152714 74 43 3.0 7.0 0.00 0.00 0.00 20 1016.0
20260510151214 73 70 1.0 7.0 0.00 0.00 0.00 21 1015.8
20260510150714 72 75 1.0 7.0 0.00 0.00 0.00 22 1015.8
20260510145714 71 43 2.0 6.0 0.00 0.00 0.00 22 1015.7
20260510144714 70 51 2.0 6.0 0.00 0.00 0.00 23 1015.6
20260510143714 69 33 3.0 6.0 0.00 0.00 0.00 23 1015.6
20260510143214 68 29 1.0 3.0 0.00 0.00 0.00 23 1015.6
20260510142714 68 29 2.0 5.0 0.00 0.00 0.00 24 1015.6
20260510142214 67 29 2.0 5.0 0.00 0.00 0.00 24 1015.6
20260510141715 67 39 1.0 3.0 0.00 0.00 0.00 25 1015.5
20260510141214 66 27 3.0 3.0 0.00 0.00 0.00 25 1015.6
20260510135214 63 302 0.0 3.0 0.00 0.00 0.00 27 1015.4
20260510134714 63 302 0.0 3.0 0.00 0.00 0.00 27 1015.4
20260510134215 62 309 0.0 5.0 0.00 0.00 0.00 27 1015.4
20260510133714 62 23 2.0 6.0 0.00 0.00 0.00 27 1015.4
20260510133214 62 321 2.0 6.0 0.00 0.00 0.00 27 1015.2
20260510132714 62 300 1.0 3.0 0.00 0.00 0.00 28 1015.1
20260510123714 62 311 2.0 3.0 0.00 0.00 0.00 26 1014.6
20260510122714 62 305 2.0 3.0 0.00 0.00 0.00 26 1014.7
20260510122214 62 302 2.0 3.0 0.00 0.00 0.00 26 1014.7
20260510120714 63 308 1.0 3.0 0.00 0.00 0.00 26 1014.6
20260510115714 63 304 2.0 7.0 0.00 0.00 0.00 26 1014.5
20260510114714 63 316 2.0 5.0 0.00 0.00 0.00 25 1014.3
20260510113714 64 321 1.0 2.0 0.00 0.00 0.00 25 1014.1
20260510113214 64 191 1.0 2.0 0.00 0.00 0.00 25 1014.0
20260510111714 65 191 0.0 3.0 0.00 0.00 0.00 24 1014.2
20260510105715 65 82 1.0 8.0 0.00 0.00 0.00 24 1013.9
20260510103715 65 212 2.0 3.0 0.00 0.00 0.00 24 1014.2
20260510102214 65 246 0.0 3.0 0.00 0.00 0.00 24 1014.3
20260510101714 65 246 0.0 3.0 0.00 0.00 0.00 23 1014.4
20260510101214 65 261 2.0 3.0 0.00 0.00 0.00 23 1014.2
20260510100715 66 263 2.0 3.0 0.00 0.00 0.00 23 1014.2
20260510100214 66 271 0.0 2.0 0.00 0.00 0.00 23 1014.0
20260510095214 66 143 0.0 3.0 0.00 0.00 0.00 23 1013.6
20260510094214 66 143 1.0 3.0 0.00 0.00 0.00 22 1013.5
20260510093714 66 143 2.0 3.0 0.00 0.00 0.00 22 1013.5
20260510092715 66 186 1.0 3.0 0.00 0.00 0.00 21 1013.7
20260510091214 66 265 1.0 6.0 0.00 0.00 0.00 22 1013.7
20260510085214 65 278 2.0 5.0 0.00 0.00 0.00 22 1013.6
20260510084714 65 301 1.0 6.0 0.00 0.00 0.00 22 1013.5
20260510084214 65 307 1.0 9.0 0.00 0.00 0.00 22 1013.4
20260510083714 65 299 3.0 9.0 0.00 0.00 0.00 22 1013.3
20260510083214 65 298 5.0 8.0 0.00 0.00 0.00 21 1013.1
20260510082714 65 299 3.0 7.0 0.00 0.00 0.00 21 1012.9
20260510082215 65 295 3.0 7.0 0.00 0.00 0.00 21 1012.8
20260510080214 67 296 3.0 8.0 0.00 0.00 0.00 20 1012.9
20260510075714 68 317 3.0 8.0 0.00 0.00 0.00 19 1012.9
20260510075214 68 313 3.0 9.0 0.00 0.00 0.00 19 1012.8
20260510073714 69 310 5.0 8.0 0.00 0.00 0.00 18 1012.8
20260510072213 69 324 6.0 14.0 0.00 0.00 0.00 18 1012.9
20260510071214 68 329 7.0 12.0 0.00 0.00 0.00 19 1012.8
20260510070714 68 339 5.0 12.0 0.00 0.00 0.00 19 1012.8
20260510065214 68 314 3.0 7.0 0.00 0.00 0.00 19 1012.5
20260510064714 68 297 2.0 7.0 0.00 0.00 0.00 19 1012.5
20260510061214 70 345 3.0 8.0 0.00 0.00 0.00 17 1012.0
20260510060214 70 1 3.0 9.0 0.00 0.00 0.00 17 1012.0
20260510054215 68 0 4.0 8.0 0.00 0.00 0.00 17 1011.9
20260510053713 68 23 5.0 8.0 0.00 0.00 0.00 17 1011.9
20260510053214 68 25 2.0 7.0 0.00 0.00 0.00 16 1011.9
20260510052713 68 7 3.0 7.0 0.00 0.00 0.00 16 1011.9
20260510051714 69 300 2.0 9.0 0.00 0.00 0.00 15 1011.6
20260510051214 69 291 3.0 12.0 0.00 0.00 0.00 15 1011.5
20260510050714 70 298 5.0 12.0 0.00 0.00 0.00 14 1011.5
20260510050214 71 305 3.0 8.0 0.00 0.00 0.00 14 1011.4
20260510044714 72 304 0.0 8.0 0.00 0.00 0.00 13 1011.3
20260510044214 73 310 2.0 9.0 0.00 0.00 0.00 13 1011.2
20260510043713 73 306 4.0 9.0 0.00 0.00 0.00 13 1011.1
20260510043213 73 306 4.0 9.0 0.00 0.00 0.00 13 1011.1
20260510042214 74 315 4.0 8.0 0.00 0.00 0.00 12 1010.9
20260510041214 75 310 5.0 8.0 0.00 0.00 0.00 12 1010.9
20260510040713 76 310 3.0 8.0 0.00 0.00 0.00 12 1010.9
20260510040215 76 315 5.0 10.0 0.00 0.00 0.00 11 1010.9
20260510035714 76 312 6.0 12.0 0.00 0.00 0.00 11 1010.8
20260510034214 77 312 7.0 18.0 0.00 0.00 0.00 11 1010.6
20260510033714 77 312 7.0 18.0 0.00 0.00 0.00 11 1010.6
20260510033216 77 314 10.0 17.0 0.00 0.00 0.00 11 1010.5
20260510032214 77 334 7.0 10.0 0.00 0.00 0.00 11 1010.3
20260510031714 77 306 5.0 10.0 0.00 0.00 0.00 10 1010.3
20260510031214 78 313 5.0 7.0 0.00 0.00 0.00 11 1010.2
20260510025213 78 293 0.0 5.0 0.00 0.00 0.00 14 1009.8
20260510024714 79 304 2.0 5.0 0.00 0.00 0.00 14 1009.8
20260510023714 79 0 0.0 1.0 0.00 0.00 0.00 13 1009.4
20260510023214 80 0 0.0 2.0 0.00 0.00 0.00 14 1009.4
20260510022713 80 0 0.0 3.0 0.00 0.00 0.00 13 1009.4
20260510022213 80 0 1.0 3.0 0.00 0.00 0.00 13 1009.3
20260510021214 81 129 0.0 2.0 0.00 0.00 0.00 13 1009.2
20260510020714 81 129 0.0 3.0 0.00 0.00 0.00 13 1009.1
20260510015714 81 134 1.0 3.0 0.00 0.00 0.00 12 1009.0
20260510011714 82 158 2.0 13.0 0.00 0.00 0.00 11 1008.8
20260510011214 82 190 9.0 18.0 0.00 0.00 0.00 11 1008.6
20260510010714 82 166 9.0 18.0 0.00 0.00 0.00 11 1008.7
20260510010213 83 278 5.0 17.0 0.00 0.00 0.00 11 1009.1
20260510005714 83 272 9.0 17.0 0.00 0.00 0.00 11 1009.2
20260510003713 84 309 5.0 17.0 0.00 0.00 0.00 9 1008.8
20260510003214 84 320 8.0 18.0 0.00 0.00 0.00 9 1008.9
20260510002714 85 297 7.0 18.0 0.00 0.00 0.00 9 1008.7
20260510001714 85 318 1.0 12.0 0.00 0.00 0.00 9 1008.6
20260510001213 85 208 3.0 12.0 0.00 0.00 0.00 9 1008.7
20260510000213 85 270 4.0 14.0 0.00 0.00 0.00 8 1008.7
20260509235714 85 282 5.0 14.0 0.00 0.00 0.00 8 1008.7
20260509235214 85 231 6.0 12.0 0.00 0.00 0.00 8 1008.7
20260509234214 86 246 5.0 13.0 0.00 0.00 0.00 7 1008.7
20260509233213 88 236 8.0 15.0 0.00 0.00 0.00 7 1008.8
20260509231714 90 293 6.0 16.0 0.00 0.00 0.00 7 1008.7